Retour au catalogue

ECHOSTAR 1 PKM

ActifHEO
NORAD 23756·ROCKET BODY·🇨🇳 China

Lancé Dec 28, 1995 depuis Xichang Satellite Launch Center

Loading…

Prochains Passages (prochaines 24 heures)

TLE

FraisSource: Space-Track

Époque: Sep 14, 2026, 07:07 UTC

1 23756U 95073C   26257.29693059  .00018629  00000-0  68885-3 0  9996
2 23756  24.2740   9.9466 5535535 323.5476   9.2065  4.83764269365879

Suivez ECHOSTAR 1 PKM en temps réel avec AllMySat

Download on the App Store